Weather History for Ramona, CA

Change the Weather History Date:

Friday, June 7, 2013

  Actual Average Record
Temperature  
Mean Temperature 68 °F 65 °F  
Max Temperature 80 °F 80 °F 99 °F (1985)
Min Temperature 56 °F 50 °F 39 °F (1988)
Degree Days  
Heating Degree Days 0 1  
Month to date heating degree days 2 13  
Since 1 June heating degree days 2 13  
Since 1 July heating degree days 2344 2537  
Cooling Degree Days 3 2  
Month to date cooling degree days 16 9  
Year to date cooling degree days 64 36  
Since 1 June cooling degree days 16 9  
Growing Degree Days 17 (Base 50)    
Moisture  
Dew Point 55 °F    
Average Humidity 73    
Maximum Humidity 100    
Minimum Humidity 45    
Precipitation  
Precipitation 0.00 in 0.01 in 0.01 in (1979)
Month to date precipitation 0.00 0.06  
Year to date precipitation 4.50 11.27  
Since 1 July precipitation 8.14 15.98  
Snow  
Snow 0.00 in - - ()
Month to date snowfall 0.0  
Year to date snowfall 0.0  
Since 1 July snowfall 0.0  
Snow Depth 0.00 in    
Sea Level Pressure  
Sea Level Pressure 29.85 in    
Wind  
Wind Speed 5 mph (WNW)    
Max Wind Speed 13 mph    
Max Gust Speed 18 mph    
Visibility 6 miles    
Events      
T = Trace of Precipitation, MM = Missing Value Source: NWS Daily Summary

Daily Weather History Graph

Daily Weather History Graph

Search for Another Location

Airport:

Trip Planner

Search our weather history database for the weather conditions in past years. The results will help you decide how hot, cold, wet, or windy it might be!

Date:

Astronomy

Jun. 07, 2013 Rise Set
Actual Time 5:38 AM PDT 7:54 PM PDT
Civil Twilight 5:10 AM PDT 8:23 PM PDT
Nautical Twilight 4:35 AM PDT 8:58 PM PDT
Astronomical Twilight 3:57 AM PDT 9:36 PM PDT
Moon 5:01 AM PDT (6/7) 7:15 PM PDT (6/7)
Length of Visible Light 15h 13m
Length of Day
14h 16m
Waning Crescent, 1% of the Moon is Illuminated
Jun 7
Waning Crescent
Jun 8
New
Jun 16
First Quarter
Jun 23
Full
Jun 29
Last Quarter

Hourly Weather History & Observations

Time (PDT) Temp. Dew Point Humidity Pressure Visibility Wind Dir Wind Speed Gust Speed Precip Events Conditions
12:04 AM 55.4 °F 55.4 °F 100% 29.92 in 4.0 mi Calm Calm - N/A   Overcast
12:53 AM 57.0 °F 55.0 °F 93% 29.88 in 5.0 mi NNW 4.6 mph - N/A   Overcast
1:53 AM 57.0 °F 55.0 °F 93% 29.86 in 5.0 mi Calm Calm - N/A   Overcast
2:30 AM 55.4 °F 55.4 °F 100% 29.89 in 2.0 mi Calm Calm - N/A   Overcast
2:39 AM 55.4 °F 55.4 °F 100% 29.89 in 1.8 mi Calm Calm - N/A   Overcast
2:53 AM 55.9 °F 55.0 °F 97% 29.85 in 1.8 mi Calm Calm - N/A   Overcast
3:03 AM 57.2 °F 55.4 °F 94% 29.88 in 2.5 mi Calm Calm - N/A   Overcast
3:53 AM 55.9 °F 55.0 °F 97% 29.84 in 2.0 mi Calm Calm - N/A   Overcast
4:21 AM 55.4 °F 55.4 °F 100% 29.87 in 1.8 mi Calm Calm - N/A   Overcast
4:53 AM 55.9 °F 55.0 °F 97% 29.84 in 1.2 mi Calm Calm - N/A   Overcast
5:23 AM 55.4 °F 55.4 °F 100% 29.87 in 2.0 mi Calm Calm - N/A   Overcast
5:37 AM 55.4 °F 55.4 °F 100% 29.87 in 1.5 mi Calm Calm - N/A   Overcast
5:53 AM 55.9 °F 55.0 °F 97% 29.84 in 2.0 mi Calm Calm - N/A   Overcast
6:53 AM 55.9 °F 55.0 °F 97% 29.85 in 1.2 mi Calm Calm - N/A   Overcast
7:26 AM 57.2 °F 55.4 °F 94% 29.88 in 2.0 mi Calm Calm - N/A   Overcast
7:43 AM 55.4 °F 55.4 °F 100% 29.88 in 1.2 mi Calm Calm - N/A   Overcast
7:53 AM 57.0 °F 55.0 °F 93% 29.86 in 2.0 mi SSE 4.6 mph - N/A   Overcast
8:13 AM 57.2 °F 55.4 °F 94% 29.89 in 4.0 mi Calm Calm - N/A   Overcast
8:49 AM 59.0 °F 55.4 °F 88% 29.89 in 5.0 mi Calm Calm - N/A   Overcast
8:53 AM 59.0 °F 55.0 °F 87% 29.87 in 6.0 mi Calm Calm - N/A   Overcast
9:38 AM 62.6 °F 55.4 °F 77% 29.88 in 10.0 mi Variable 3.5 mph - N/A   Scattered Clouds
9:53 AM 64.9 °F 55.9 °F 73% 29.86 in 9.0 mi Variable 3.5 mph - N/A   Partly Cloudy
10:53 AM 71.1 °F 55.9 °F 59% 29.84 in 10.0 mi WNW 6.9 mph - N/A   Clear
11:53 AM 75.0 °F 55.9 °F 51% 29.83 in 10.0 mi NW 9.2 mph - N/A   Clear
12:53 PM 78.1 °F 55.9 °F 46% 29.82 in 10.0 mi NW 8.1 mph - N/A   Clear
1:53 PM 78.1 °F 57.0 °F 48% 29.81 in 10.0 mi West 11.5 mph - N/A   Clear
2:53 PM 79.0 °F 57.0 °F 47% 29.80 in 10.0 mi NW 9.2 mph 17.3 mph N/A   Clear
3:53 PM 79.0 °F 57.0 °F 47% 29.78 in 10.0 mi WNW 10.4 mph - N/A   Clear
4:53 PM 75.0 °F 57.0 °F 53% 29.78 in 10.0 mi West 10.4 mph - N/A   Clear
5:53 PM 73.9 °F 57.0 °F 55% 29.78 in 10.0 mi West 9.2 mph - N/A   Clear
6:53 PM 69.1 °F 55.9 °F 63% 29.79 in 10.0 mi West 9.2 mph - N/A   Clear
7:53 PM 62.1 °F 55.0 °F 78% 29.81 in 10.0 mi West 9.2 mph - N/A   Clear
8:53 PM 57.9 °F 54.0 °F 87% 29.82 in 10.0 mi West 5.8 mph - N/A   Clear
9:51 PM 57.2 °F 53.6 °F 88% 29.86 in 8.0 mi WNW 5.8 mph - N/A   Scattered Clouds
9:53 PM 57.0 °F 54.0 °F 89% 29.84 in 8.0 mi NW 6.9 mph - N/A   Mostly Cloudy
10:42 PM 57.2 °F 55.4 °F 94% 29.86 in 6.0 mi Calm Calm - N/A   Overcast
10:53 PM 57.0 °F 55.0 °F 93% 29.83 in 6.0 mi NW 3.5 mph - N/A   Overcast
11:53 PM 57.0 °F 54.0 °F 89% 29.81 in 6.0 mi Calm Calm - N/A   Mostly Cloudy